Location: Czekanka
(50.4925°N, 19.2643°E)
Time: 07:22:02
(UTC+00:00)

SL-16 R/B - Pass Details

Date: 20 September 2024
Orbit: 842 x 846 km, 71.0° (Epoch: 05 October)

Event Time Altitude Azimuth Distance (km) Brightness Sun altitude
Rises 00:23:20 0° 328° (NNW) 3,413 5.6 -33.7°
Reaches altitude 10° 00:27:43 10° 359° (N) 2,475 5.2 -33.3°
Maximum altitude 00:29:44 12° 20° (NNE) 2,345 5.3 -33.1°
Drops below altitude 10° 00:31:46 10° 42° (NE) 2,472 5.5 -33.0°
Sets 00:36:07 0° 73° (ENE) 3,404 6.1 -32.6°
